View from above orbital plane
|
View from above satellite
|
Ground track
|
The orbit data is extracted from the following two-line orbital elements,
1 40921U 15050B 21020.16055367 .00000050 00000-0 28941-3 0 9997
2 40921 82.4855 227.8241 0014212 9.7929 350.3425 12.42878367241649
Epoch (UTC): | 20 January 2021 03:51:11 |
Eccentricity: | 0.0014212 |
inclination: | 82.4855° |
perigee height: | 1483 km |
apogee height: | 1505 km |
right ascension of ascending node: | 227.8241° |
argument of perigee: | 9.7929° |
revolutions per day: | 12.42878367 |
mean anomaly at epoch: | 350.3425° |
orbit number at epoch: | 24164 |
The dashed part of the orbit path shows where the satellite is in the earth's shadow,
|
|